Regional Weather Roundup
Issued by NWS Jackson, KY

Home | Current Version | Previous Version | Text Only | Print | Product List | Glossary On
Versions: 1 2 3 4 5 6 7 8 9 10 11 12 13 14 15 16 17 18 19 20 21 22 23 24 25 26 27 28 29 30 31 32 33 34 35 36 37 38 39 40 41 42 43 44 45 46 47 48 49 50
596
ASUS43 KJKL 061910
RWRJKL

EAST KENTUCKY HOURLY WEATHER ROUNDUP
NATIONAL WEATHER SERVICE JACKSON KY
200 PM EST SAT FEB 06 2016

NOTE: "FAIR" INDICATES FEW OR NO CLOUDS BELOW 12,000 FEET WITH
NO SIGNIFICANT WEATHER AND/OR OBSTRUCTIONS TO VISIBILITY.

* THESE REPORTS ARE NOT UNDER NWS QUALITY CONTROL AND MAY NOT
  REPORT WEATHER SUCH AS PRECIPITATION AND FOG.

KYZ079-080-083-085-087-088-110-112-115-119-120-062000
...EASTERN KENTUCKY...

CITY           SKY/WX    TMP DP  RH WIND       PRES   REMARKS
JACKSON        SUNNY     50  21  32 SW8       30.27F
LONDON         MOSUNNY   47  18  31 W6        30.29F
SOMERSET*      SUNNY     45  19  36 W8        30.32F
MONTICELLO*    CLOUDY    48  20  32 W8        30.32F
WILLIAMSBURG*  PTCLDY    46  19  34 CALM      30.30F
MIDDLESBORO*   CLOUDY    44  21  39 S3        30.32F
HARLAN APT*      N/A     45  16  31 SW3       30.28F
HAZARD APT*    CLEAR    N/A N/A N/A W7        30.28F
BLACK MTN*       N/A     32  18  55 CALM        N/A
BIG SANDY*     CLEAR     49  21  33 NW10      30.28F
MOREHEAD APT*  CLEAR     48  21  34 W10G16    30.30F
$$

KYZ035-036-041-042-044-050-067-078-099-062000
...CENTRAL KENTUCKY...

CITY           SKY/WX    TMP DP  RH WIND       PRES   REMARKS
MT STERLING*   SUNNY     48  27  43 W8G17     30.30F
DANVILLE*      CLOUDY    46  21  36 W7        30.30F
RICHMOND*      MOSUNNY   48  19  32 W10G17    30.28F
LEXINGTON      SUNNY     49  23  36 W8        30.28F
FRANKFORT      SUNNY     47  22  37 SW8       30.28F
$$

KYZ091>093-OHZ055-061-077-WVZ005-015-034-035-042-062000
...SOUTHERN OHIO/WEST VIRGINIA...

CITY           SKY/WX    TMP DP  RH WIND       PRES   REMARKS
COVINGTON      PTSUNNY   43  23  45 W7        30.27F
COLUMBUS       MOSUNNY   40  11  30 SW12      30.26F WCI  33
DAYTON         MOSUNNY   40  15  36 W9        30.26F WCI  34
WILMINGTON     SUNNY     42  19  39 SW6       30.26F
HUNTINGTON       N/A     49  20  31 W10       30.27F
CHARLESTON       N/A     47  18  31 W10G20    30.26F
PINEVILLE*       N/A     45  10  24 MISG      30.31F
BECKLEY          N/A     42  14  32 W13       30.23F
$$

VAZ002-007-008-TNZ017-027-036-066-071-062000
...SOUTHWEST VIRGINIA/EAST TENNESSEE...

CITY           SKY/WX    TMP DP  RH WIND       PRES   REMARKS
BRISTOL        CLOUDY    43  13  29 VRB3      30.30F
KNOXVILLE      MOSUNNY   48  12  23 CALM      30.32F
OAK RIDGE      MOSUNNY   48  16  27 NW3       30.34F
CROSSVILLE     CLOUDY    44  17  33 E6        30.30F
NASHVILLE      PTSUNNY   52  16  24 N3        30.32F
$$

...KEY TO REMARKS...
VSB - VISIBILITY IN MILES
WCI - WIND CHILL INDEX
HX  - HEAT INDEX

$$




USA.gov is the U.S. government's official web portal to all federal, state and local government web resources and services.